Prescott, AZ

7:25 AM MST on November 21, 2019 (GMT -0700)
Love

Weather History for KPRC - October, 2019

Change the Weather History Date:

Monday, October 21, 2019

  Actual Average Record
Temperature  
Mean Temperature 54 °F 55 °F  
Max Temperature 72 °F 70 °F 88 °F (2003)
Min Temperature 36 °F 40 °F 22 °F (1949)
Degree Days  
Heating Degree Days 11    
Month to date heating degree days 142  
Since 1 July heating degree days 169  
Cooling Degree Days 0    
Month to date cooling degree days 0  
Year to date cooling degree days 1130  
Growing Degree Days 4 (Base 50)    
Moisture  
Dew Point 11 °F    
Average Humidity 20    
Maximum Humidity 38    
Minimum Humidity 8    
Precipitation  
Precipitation 0.00 in 0.03 in 1.28 in (1969)
Month to date precipitation 0.00 0.65  
Year to date precipitation 10.29 11.82  
Sea Level Pressure  
Sea Level Pressure 30.06 in    
Wind  
Wind Speed 6 mph ()    
Max Wind Speed 17 mph    
Max Gust Speed 22 mph    
Visibility 9.9 miles    
Events      
T = Trace of Precipitation, MM = Missing Value Source: Averaged Metar Reports

Daily Weather History Graph

Daily Weather History Graph

Search for Another Location

Airport or City:

Astronomy

Oct. 21, 2019 Rise Set
Actual Time 6:40 AM MST 5:47 PM MST
Civil Twilight 6:14 AM MST 6:13 PM MST
Nautical Twilight 5:45 AM MST 6:42 PM MST
Astronomical Twilight 5:15 AM MST 7:12 PM MST
Moon No Moon Rise 1:52 PM MST
Length of Visible Light 11h 58m
Length of Day
11h 07m
Waning Gibbous, 47% of the Moon is Illuminated
Oct 21
Waning Gibbous
Oct 27
New
Nov 4
First Quarter
Nov 12
Full
Nov 19
Last Quarter

Hourly Weather History & Observations

Time (MST) Temp. Windchill Dew Point Humidity Pressure Visibility Wind Dir Wind Speed Gust Speed Precip Events Conditions
12:53 AM 43.0 °F 37.7 °F 6.1 °F 22% 29.98 in 10.0 mi NW 9.2 mph - N/A   Clear
1:53 AM 44.1 °F 40.1 °F 7.0 °F 22% 29.98 in 10.0 mi WNW 6.9 mph - N/A   Clear
2:53 AM 44.1 °F 41.5 °F 7.0 °F 22% 29.98 in 10.0 mi West 4.6 mph - N/A   Clear
3:53 AM 42.1 °F 39.2 °F 8.1 °F 25% 29.99 in 10.0 mi WSW 4.6 mph - N/A   Clear
4:53 AM 37.0 °F - 9.0 °F 31% 30.02 in 10.0 mi Calm Calm - N/A   Clear
5:53 AM 37.0 °F 33.3 °F 10.9 °F 34% 30.06 in 10.0 mi South 4.6 mph - N/A   Clear
6:53 AM 37.9 °F 35.5 °F 14.0 °F 38% 30.08 in 10.0 mi South 3.5 mph - N/A   Clear
7:53 AM 46.0 °F - 12.9 °F 26% 30.08 in 10.0 mi Calm Calm - N/A   Clear
8:53 AM 53.1 °F - 9.0 °F 17% 30.10 in 10.0 mi NNW 8.1 mph - N/A   Clear
9:53 AM 59.0 °F - 12.9 °F 16% 30.09 in 10.0 mi NNW 11.5 mph - N/A   Clear
10:53 AM 61.0 °F - 15.1 °F 17% 30.08 in 10.0 mi NNW 11.5 mph - N/A   Clear
11:53 AM 64.9 °F - 12.9 °F 13% 30.06 in 10.0 mi North 13.8 mph 18.4 mph N/A   Clear
12:53 PM 68.0 °F - 10.0 °F 11% 30.04 in 10.0 mi NW 10.4 mph 16.1 mph N/A   Clear
1:53 PM 70.0 °F - 7.0 °F 9% 30.02 in 10.0 mi North 10.4 mph 17.3 mph N/A   Clear
2:53 PM 71.1 °F - 6.1 °F 8% 30.00 in 10.0 mi NNW 10.4 mph - N/A   Clear
3:53 PM 71.1 °F - 9.0 °F 9% 30.01 in 10.0 mi NNW 6.9 mph - N/A   Clear
4:53 PM 70.0 °F - 10.9 °F 10% 30.04 in 10.0 mi NW 9.2 mph - N/A   Clear
5:53 PM 63.0 °F - 12.9 °F 14% 30.06 in 10.0 mi North 6.9 mph - N/A   Clear
6:53 PM 61.0 °F - 15.1 °F 17% 30.09 in 10.0 mi North 8.1 mph - N/A   Clear
7:53 PM 54.0 °F - 15.1 °F 22% 30.11 in 10.0 mi NW 10.4 mph - N/A   Clear
8:53 PM 54.0 °F - 14.0 °F 21% 30.12 in 10.0 mi NW 5.8 mph - N/A   Clear
9:53 PM 52.0 °F - 16.0 °F 24% 30.12 in 9.0 mi West 8.1 mph - N/A   Clear
10:53 PM 53.1 °F - 12.9 °F 20% 30.14 in 9.0 mi WNW 6.9 mph - N/A   Clear
11:53 PM 52.0 °F - 12.9 °F 21% 30.13 in 9.0 mi NW 5.8 mph - N/A   Clear